www.pogodaiklimat.ru

Погода и климат >> Архив погоды >> Россия >> Краснодарский край >> Геленджик


АРХИВ ПОГОДЫ в Геленджике

Время (UTC), дата Ветер
(напр.,м/с)
 
Видим.   Явления Облачность Т
(С)
Тd
(С)
f
(%)
Тe
(С)
Тes
(С)
Комфортность P
(гПа)
Po
(гПа)
Тmin
(С)
Tmax
(С)
R
(мм)
R24
(мм)
S
(см)
09 18.04 В 2 50 км 10/3 1000 м
[Cu Sc Ac trans Cc]
+17.2 +8.0 55 +18 +23 тепло 1007.9 1006.2
12 18.04 В 2
{12}
50 км 10/0
[Ac trans Cc]
+16.6 +8.7 60 +17 +24 тепло 1006.9 1005.1
15 18.04 ЮВ 4 20 км 3/0
[Ac trans Cs]
+14.3 +8.4 68 +13 +14 тепло 1007.6 1005.8 +19.6
18 18.04 ЮВ 2 10 км в посл. час ливневой дождь 10/10 300 м
[Cb cap]
+11.8 +10.3 91 +11 +11 тепло 1010.2 1008.4
21 18.04 ЮЗ 5-11
{11}
4000 м ливневой дождь 10/10 300 м
[Cb cap]
+9.3 +7.8 90 +6 +6 по сезону 1011.6 1009.8
00 19.04 З 2
{11}
10 км {ливн. осадки} 10/10 600 м
[Cb cap]
+9.4 +4.6 72 +8 +8 по сезону 1012.6 1010.8
03 19.04 ЮЗ 4-11
{12}
10 км слабый ливневой дождь 10/10 600 м
[Cb cap]
+8.3 +4.0 74 +5 +5 прохладно 1013.4 1011.6 +8.3 5
06 19.04 З 3-10
{14}
10 км слабый ливневой дождь 10/10 600 м
[Cb cap]
+7.5 +3.4 75 +5 +5 прохладно 1014.7 1012.9 +7.0
09 19.04 ЮЗ 5-10
{18}
20 км {ливн. осадки} 10/10 600 м
[Cb cap]
+7.4 +2.1 69 +4 +4 холодно 1017.7 1015.9
12 19.04 ЮЗ 2
{12}
20 км в посл. час ливневой дождь 10/10 600 м
[Cb cap]
+8.3 +3.1 70 +7 +7 холодно 1020.2 1018.3
15 19.04 ЮЗ 3
{10}
10 км слабый ливневой дождь 10/10 300 м
[Cb cap]
+7.8 +4.0 77 +5 +5 холодно 1021.4 1019.6 +8.7 2
18 19.04 ЮЗ 2 10 км {ливн. осадки} 10/10 600 м
[Cb cap]
+7.7 +1.7 66 +6 +6 прохладно 1023.2 1021.3
21 19.04 ЮЗ 1 н/о н/о +7.8 +2.0 67 +7 +7 по сезону 1023.3 1021.4
00 20.04 СВ 1 10 км 6/3 1000 м
[Sc Ac trans Cc]
+4.1 +1.1 81 +3 +3 прохладно 1021.7 1019.9
03 20.04 С 1 20 км 3/0
[Cc]
+4.5 +3.3 92 +3 +3 холодно 1020.1 1018.2 +2.7 0.0
06 20.04 СЗ 1 50 км 4/0
[Ci fib]
+11.7 +3.4 57 +12 +20 по сезону 1018.8 1017.0
09 20.04 ЮЗ 1 50 км 3/0
[Ci fib]
+15.2 +4.1 47 +16 +33 опасность
простуды
1016.9 1015.1
12 20.04 Ю 1 50 км ясно +15.8 +4.4 47 +17 +30 опасность
простуды
1014.8 1013.1
15 20.04 ЮЗ 2 50 км 4/0
[Ac trans]
+14.1 +5.7 57 +14 +15 тепло 1013.0 1011.2 +16.9
18 20.04 штиль 0 10 км ясно +10.1 +5.4 73 +10 +10 по сезону 1012.1 1010.3
21 20.04 СВ 1 10 км 8/3 1000 м
[Sc Ac As Cc]
+10.2 +4.5 68 +10 +10 по сезону 1009.3 1007.4
00 21.04 ЮВ 1
{22}
10 км 10/6 1000 м
[Sc Ac As]
+13.5 +4.5 54 +14 +14 тепло 1010.3 1008.5
03 21.04 ЮЗ 1 20 км в посл. час ливневой дождь 10/8 1000 м
[Cb cap Ac As]
+12.1 +8.9 81 +12 +12 тепло 1009.4 1007.6 +8.2 1
06 21.04 З 5-10
{11}
10 км слабый ливневой дождь 10/10 600 м
[Cb cap]
+10.1 +7.9 86 +7 +7 прохладно 1012.8 1011.0
09 21.04 ЮЗ 5
{13}
20 км в посл. час ливневой дождь 10/10 600 м
[Cb cap]
+9.2 +5.5 78 +6 +6 холодно 1015.7 1013.9
12 21.04 С 1 10 км слабый ливневой дождь 10/10 600 м
[Cb cap]
+8.8 +4.3 73 +8 +8 прохладно 1015.7 1013.9
15 21.04 С 1 20 км {ливн. осадки} 10/10 600 м
[Cb cap]
+8.6 +4.5 75 +8 +8 прохладно 1015.5 1013.7 +12.4 4
18 21.04 ЮЗ 3
{10}
10 км {ливн. осадки} 10/10 600 м
[Cb cap]
+8.9 +2.9 66 +7 +7 по сезону 1016.0 1014.1
21 21.04 ЮЗ 7-14
{16}
10 км в посл. час ливневой дождь 10/10 600 м
[Cb cap]
+7.7 +3.2 73 +3 +3 прохладно 1015.1 1013.3
00 22.04 ЮЗ 9-17
{19}
10 км слабый ливневой дождь 10/10 600 м
[Cb cap]
+8.0 +3.0 71 +3 +3 прохладно 1014.2 1012.4
03 22.04 ЮЗ 8-16
{17}
20 км {ливн. осадки} 10/8 600 м
[Cb cap Ci fib]
+8.0 +3.1 71 +3 +3 холодно 1015.1 1013.3 +6.6 0.5
06 22.04 З 9-15
{16}
20 км в посл. час ливневой дождь 10/9 600 м
[Cb cap Ac und]
+7.8 +3.0 72 +3 +3 холодно 1018.1 1016.3
09 22.04 ЮЗ 3
{16}
20 км {ливн. осадки} 8/8 600 м
[Cb cap Ac trans]
+10.0 +3.7 65 +8 +11 прохладно 1021.9 1020.1
12 22.04 ЮЗ 2
{11}
20 км {ливн. осадки} 6/5 600 м
[Cu Sc Ci fib]
+10.3 +4.1 65 +9 +15 прохладно 1022.0 1020.2
15 22.04 ЮВ 2 20 км 10/4 600 м
[Cu Sc As op Cs]
+9.2 +3.8 69 +8 +8 прохладно 1020.4 1018.6 +10.7 0.5
18 22.04 ЮВ 2 10 км 10/10 600 м
[Cb calv]
+8.6 +3.4 70 +7 +7 по сезону 1019.0 1017.2
21 22.04 ЮЗ 1 10 км 10/10 600 м
[Cb calv]
+8.4 +3.8 73 +8 +8 по сезону 1016.5 1014.6
00 23.04 СЗ 1 10 км 10/10 600 м
[Cb calv]
+8.1 +3.9 75 +7 +7 по сезону 1013.7 1011.9
03 23.04 СВ 4
{12}
20 км {ливн. осадки} 10/4 1000 м
[Cb cap Ac As]
+8.6 +1.7 62 +6 +6 по сезону 1008.2 1006.4 +7.7
06 23.04 СВ 7-16
{16}
20 км в посл. час ливневой дождь 10/6 600 м
[Cb cap Ac trans Cc]
+9.9 +3.3 63 +6 +7 прохладно 1002.3 1000.5
09 23.04 С 10-18
{19}
10 км слабый ливневой дождь 10/10 600 м
[Cb cap]
+9.0 +4.2 72 +4 +4 холодно 999.3 997.4
12 23.04 СВ 4
{20}
10 км слабый ливневой дождь 10/10 600 м
[Cb cap]
+11.1 +5.5 68 +9 +9 прохладно 997.7 996.0
15 23.04 З 1
{11}
10 км слабый ливневой дождь 10/10 300 м
[Cb cap]
+9.5 +6.3 80 +9 +9 по сезону 1000.2 998.4 +12.8 1
18 23.04 З 3
{15}
10 км в посл. час ливневой дождь 10/8 600 м
[Cb cap Ac und]
+4.9 +2.1 82 +1 +1 очень
холодно
1008.9 1007.0
21 23.04 ЮЗ 6-11
{13}
10 км слабый ливневой дождь 10/10 600 м
[Cb cap]
+6.4 +3.6 82 +2 +2 холодно 1012.8 1011.0
00 24.04 В 2
{11}
10 км слабый ливневой дождь 10/10 600 м
[Cb cap]
+7.2 +4.9 85 +5 +5 по сезону 1014.0 1012.1
03 24.04 ЮВ 4 20 км {ливн. осадки} 10/10 600 м
[Cb cap]
+8.3 +5.9 85 +5 +5 прохладно 1014.2 1012.4 +4.8 3
06 24.04 ЮВ 5-12
{13}
10 км {ливн. осадки} 10/10 300 м
[Cb cap]
+9.2 +6.5 83 +6 +6 прохладно 1013.7 1011.9
09 24.04 ЮЗ 6-10
{18}
10 км в посл. час ливневой дождь 10/10 300 м
[Cb cap]
+7.8 +5.1 83 +4 +4 холодно 1015.1 1013.2
12 24.04 З 6
{12}
50 км {ливн. осадки} 10/6 300 м
[Cb cap Ac und]
+9.3 +4.2 70 +6 +6 холодно 1018.0 1016.2
15 24.04 СВ 2
{13}
50 км в посл. час гроза {ливн. осадки} 10/5 600 м
[Cb cap Ac As Ci fib]
+8.0 +4.0 76 +6 +7 холодно 1019.6 1017.7 +9.7 5
18 24.04 ЮЗ 3 10 км {гроза, ливн. осадки} 8/4 600 м
[Cb cap Ac trans Ci fib]
+8.7 +5.8 82 +6 +6 прохладно 1021.2 1019.4
21 24.04 штиль 0 10 км слабый ливневой дождь 10/8 300 м
[Cb cap Ac und]
+7.5 +5.0 84 +7 +7 по сезону 1022.5 1020.6
00 25.04 С 1 10 км {ливн. осадки} 8/4 600 м
[Cb cap Ac trans Ci fib]
+6.6 +4.4 86 +6 +6 по сезону 1023.8 1021.9
03 25.04 штиль 0 50 км 10/4 600 м
[Cb cap Ac As Ci fib]
+6.9 +3.4 78 +6 +6 прохладно 1025.7 1023.8 +5.9
06 25.04 З 4 20 км 4/4 600 м
[Cu med, cong]
+9.8 +4.6 70 +7 +10 прохладно 1028.0 1026.2

 

Местоположение метеостанции Геленджик (Краснодарский край, Россия): широта 44.57 долгота 38.08 высота над уровнем моря 15 м.

В архиве по умолчанию представлена погода в Геленджике за последнюю неделю. Архивные данные за месяц целиком и за предыдущие месяцы, начиная с января 2011 года, Вы можете получить, выбрав интересующий диапазон дат из раскрывающегося списка и нажав кнопку "Ввод!".

Внимание! Время в таблицах - всемирное. Для получения местного времени необходимо прибавить поправку, которая в Геленджике равна 3 ч.

Смотрите также архив погоды в соседних городах и на ближайших метеорологических станциях:

Погода в Новороссийске (Краснодарский край, Россия) (25 км)
Погода в Крымске (Краснодарский край, Россия) (39 км)
Погода в Джубге (Краснодарский край, Россия) (57 км)
Погода в Анапе (Краснодарский край, Россия) (72 км)
Погода в Славянске-на-Кубани (Краснодарский край, Россия) (79 км)
Погода в Горячем Ключе (Краснодарский край, Россия) (81 км)
Погода в Краснодаре (Краснодарский край, Россия) (92 км)
Погода в Туапсе (Краснодарский край, Россия) (95 км)
Погода в Горном (Краснодарский край, Россия) (100 км)
Погода в Темрюке (Краснодарский край, Россия) (100 км)

Пояснения к столбцам:

Ветер - указаны скорость ветра в м/с - средняя за 10 мин, порывы в срок и между сроками (в фигурных скобках) и направление, откуда дует ветер: С - северный, СВ - северо-восточный, В - восточный, ЮВ - юго-восточный, Ю - южный, ЮЗ - юго-западный, З - западный, СЗ - северо-западный.
Видимость - горизонтальная дальность видимости в метрах или километрах. При видимости от 1 до 10 км при отсутствии осадков обычно наблюдается дымка, при ухудшении видимости до 1 км и менее - туман. В сухую погоду видимость может ухудшаться дымом, пылью или мглою.
Явления - указаны атмосферные явления, наблюдавшиеся в срок или в последний час перед сроком; фигурными скобками обозначены явления, наблюдавшиеся между сроками (за 1-3 часа до срока); квадратными скобками обозначены град или гололедные отложения с указанием их диаметра в мм.
Облачность - указаны через наклонную черту общая и нижняя облачность в баллах и высота нижней границы облаков в метрах; квадратными скобками обозначены формы облаков: Ci - перистые, Cs - перисто-слоистые, Cc - перисто-кучевые, Ac - высококучевые, As - высокослоистые, Sc - слоисто-кучевые, Ns - слоисто-дождевые, Cu - кучевые, Cb - кучево-дождевые. Подробнее классификацию облаков см. в Атласе облаков (PDF).
T - Температура воздуха - температура, измеренная на высоте 2 м над землей.
Td - Температура точки росы - температура, при понижении до которой содержащийся в воздухе водяной пар достигнет насыщения.
f - Относительная влажность воздуха - влажноcть воздуха, измеренная на высоте 2 м над землей.
Te - Эффективная температура - температура, которую ощущает одетый по сезону человек в тени. Характеристика душности погоды. При расчете учитывается влияние влажности воздуха и скорости ветра на теплоощущения человека.
Tes - Эффективная температура на солнце - температура, которую ощущает человек, с поправкой на солнечный нагрев. Характеристика знойности погоды. Зависит от высоты солнца над горизонтом, облачности и скорости ветра. Ночью, в пасмурную погоду, а также при ветре 12 м/с и более поправка равна нулю.
P - Атмосферное давление - приведенное к уровню моря атмосферное давление.
Po - Атмосферное давление - измеренное на уровне метеостанции атмосферное давление.
Tmin - Минимальная температура - минимум температуры воздуха на высоте 2 м над землей.
Tmax - Максимальная температура - максимум температуры воздуха на высоте 2 м над землей.
R - Количество осадков - Количество выпавших осадков за период времени, мм. При наведении курсора мыши на число - период времени, за который выпало указанное количество осадков.
R24 - Количество осадков - Количество выпавших осадков за 24 часа, мм.
S - Снежный покров - Высота снежного покрова, см. При наведении курсора мыши на число - состояние снежного покрова и степень покрытия местности в баллах.